Hourly Weather Roundup
Issued by NWS Central Illinois

Home | Current Version | Previous Version | Text Only | Print | Product List | Glossary On
Versions: 1 2 3 4 5 6 7 8 9 10 11 12 13 14 15 16 17 18 19 20 21 22 23 24 25 26 27 28 29 30 31 32 33 34 35 36 37 38 39 40 41 42 43 44 45 46 47 48 49 50
000
NZUS43 KILX 220310
HWRILX

AREA WEATHER ROUNDUP
NATIONAL WEATHER SERVICE, LINCOLN IL
900 PM CST SUN DEC 21 2014


CITY           SKY/WX    TMP DP  RH WIND       PRES   REMARKS
BLOOMINGTON    CLOUDY    33  30  89 S12       30.02F WCI  24
CHAMPAIGN      PTCLDY    31  28  89 SE10      30.04F WCI  22
DECATUR        MOCLDY    35  30  82 SE13      30.03F WCI  26
FLORA          MOCLDY    33  29  85 E3        30.06S
GALESBURG      DRIZZLE   35  32  88 SE8       29.95F WCI  29
JACKSONVILLE   CLOUDY    40  32  73 SE9       29.96F WCI  35
LACON          CLOUDY    35  29  80 SE12      30.00F WCI  27
LAWRENCEVILLE  MOCLDY    32  28  85 E9        30.07F FOG     WCI  24
LITCHFIELD     CLOUDY    38  30  73 SE12      29.99F WCI  30
$$


CITY           SKY/WX    TMP DP  RH WIND       PRES   REMARKS
LINCOLN        CLOUDY    37  32  84 S7        30.02F WCI  31
MACOMB         CLOUDY    37  33  87 SE12      29.97F WCI  29
MATTOON        MOCLDY    33  28  81 SE8       30.04F WCI  26
MT CARMEL AP   MOCLDY    34  30  86 E7        30.06F WCI  28
OLNEY-NOBLE AP MOCLDY    32  30  93 CALM      30.07R
PARIS          PTCLDY    32  30  92 SE7       30.07F WCI  26
PEORIA         CLOUDY    38  29  70 SE7       30.00F WCI  33
PONTIAC        CLOUDY    33  31  94 SE7       30.04F WCI  26
RANTOUL        PTCLDY    32  30  91 SE12      30.05F WCI  23
ROBINSON       PTCLDY    33  29  87 SE8       30.08F WCI  26
SPRINGFIELD    CLOUDY    39  30  70 SE16      30.00F WCI  30
TAYLORVILLE    CLOUDY    36  30  80 SE10      30.01F WCI  28
$$

...REGIONAL REPORTS...


CITY           SKY/WX    TMP DP  RH WIND       PRES   REMARKS
CHICAGO O`HARE CLOUDY    34  28  79 SE10      30.04F WCI  26
KANKAKEE       MOCLDY    32  29  89 SE8       30.07S WCI  24
MOLINE         MIX PCPN  36  31  82 SE13      29.95S WCI  27
MOUNT VERNON   CLEAR     34  25  69 E7        30.02F WCI  28
PITTSFIELD     CLOUDY    40  34  79 SE10      29.95F WCI  34
QUINCY         CLOUDY    40  33  76 SE10      29.91F WCI  33
ROCKFORD       CLOUDY    35  29  78 SE14      30.01F WCI  26
$$


CITY           SKY/WX    TMP DP  RH WIND       PRES   REMARKS
BURLINGTON     CLOUDY    39  33  79 SE10      29.92F WCI  32
CEDAR RAPIDS   CLOUDY    37  35  92 SE18G26   29.86F WCI  27
DES MOINES     CLOUDY    43  38  82 S13       29.78F
KIRKSVILLE     CLOUDY    41  39  93 S13       29.86S WCI  34
OTTUMWA        CLOUDY    40  38  93 S14       29.84F WCI  32
ST LOUIS       CLOUDY    44  31  60 SE16      29.98F
$$


CITY           SKY/WX    TMP DP  RH WIND       PRES   REMARKS
TERRE HAUTE    PTCLDY    30  26  85 E6        30.08F WCI  24
EVANSVILLE     PTCLDY    36  28  73 NE6       30.06F WCI  31
INDIANAPOLIS   MOCLDY    30  25  81 E10       30.08F WCI  21
LAFAYETTE      PTCLDY    28  25  88 E7        30.09F WCI  21
MADISON        CLOUDY    35  30  82 S15       29.96S WCI  25
MILWAUKEE      CLOUDY    36  29  75 S14       30.03F WCI  27
$$





USA.gov is the U.S. government's official web portal to all federal, state and local government web resources and services.